Location: Dompnac
(44.5644°N, 4.1026°E)
Time: 14:08:55
(UTC+00:00)

Cosmos 2026 Rocket - Pass Details

Date: 22 January 2021
Orbit: 940 x 1000 km, 82.9° (Epoch: 28 February)

Event Time Altitude Azimuth Distance (km) Brightness Sun altitude
Rises 18:33:09 0° 180° (S) 3,599 7.1 -20.2°
Reaches altitude 10° 18:35:37 10° 179° (S) 2,664 6.4 -20.6°
Maximum altitude 18:41:41 75° 95° (E) 992 3.8 -21.7°
Drops below altitude 10° 18:47:53 10° 11° (N) 2,721 6.2 -22.8°
Sets 18:50:25 0° 10° (N) 3,681 6.9 -23.2°
